Simultaneous Nadir Overpasses (SNOs) Predictions

Prediction of SNOs between GOES-14 and AQUA Satellite Orbit:

Table of predicted SNOs for the next 14.0 days since TLE Epoch: 11/2/2018
Index Date Time (GOES-14) GOES-14 Lat,Lon AQUA Lat,Lon Distance(km) Time Diff (sec)
1 11/03/2018 08:41:47 0.12,-104.13 0.53,-106.16 230.19 80
2 11/05/2018 08:26:55 0.13,-104.13 -0.05,-103.19 106.41 80
3 11/05/2018 20:48:18 -0.11,-104.03 -1.06,-108.38 495.28 80
4 11/07/2018 08:14:43 0.14,-104.13 -0.68,-100.23 443.25 80
5 11/07/2018 20:36:06 -0.11,-104.04 -0.42,-105.43 157.78 80
6 11/09/2018 20:26:34 -0.12,-104.05 0.23,-102.47 179.50 80
7 11/10/2018 08:47:50 0.09,-104.16 0.83,-107.63 394.36 80
8 11/12/2018 08:35:38 0.10,-104.17 0.19,-104.68 57.55 80
9 11/14/2018 08:20:45 0.10,-104.17 -0.40,-101.71 279.33 80
10 11/14/2018 20:42:09 -0.08,-104.04 -0.68,-106.90 325.33 80
11 11/16/2018 20:32:36 -0.08,-104.05 -0.08,-103.93 12.49 80




NCC Satellite Simultaneous Nadir Overpasses (SNOs) Prediction Service
